When you browse on this site, cookies collect data to enhance your experience and personalize the content and advertising you see.
Visit our Privacy Policy to learn more. By continuing to use the site, you agree to this use of cookies and data.
  • In Hungary
  • List of Countries
  • For 7 days
  • Water Temperature
  • Weather Map
  • News
  • Weather Widgets
  • user-avatar
    Login

    Hourly Weather Ciezkow

    Today, 19 August, Monday

    Time Temperature Precipitation Wind Pressure Humidity
    00:00 +22°C° 0.6 mm 3 mps 744 mmHg 75%
    01:00 +21°C° 0 mm 3 mps 744 mmHg 89%
    02:00 +21°C° 0.1 mm 3 mps 744 mmHg 89%
    03:00 +21°C° 0.1 mm 3 mps 744 mmHg 89%
    04:00 +21°C° 0.1 mm 3 mps 744 mmHg 89%
    05:00 +22°C° 0 mm 3 mps 745 mmHg 86%
    06:00 +22°C° 0 mm 3 mps 745 mmHg 84%
    07:00 +24°C° 0 mm 3 mps 746 mmHg 81%
    08:00 +25°C° 0 mm 3 mps 746 mmHg 74%
    09:00 +26°C° 0 mm 3 mps 746 mmHg 68%
    10:00 +27°C° 0 mm 3 mps 746 mmHg 62%
    11:00 +27°C° 0.7 mm 3 mps 747 mmHg 62%
    12:00 +27°C° 0.7 mm 3 mps 747 mmHg 63%
    13:00 +27°C° 0.7 mm 4 mps 747 mmHg 63%
    14:00 +26°C° 0.7 mm 4 mps 747 mmHg 67%
    15:00 +25°C° 0.7 mm 4 mps 748 mmHg 72%
    16:00 +23°C° 0.7 mm 4 mps 748 mmHg 76%
    17:00 +21°C° 0 mm 3 mps 748 mmHg 80%
    18:00 +20°C° 0 mm 2 mps 749 mmHg 85%
    19:00 +20°C° 0 mm 1 mps 749 mmHg 89%
    20:00 +19°C° 0 mm 2 mps 749 mmHg 90%
    21:00 +19°C° 0 mm 2 mps 750 mmHg 90%
    22:00 +18°C° 0 mm 2 mps 750 mmHg 91%
    23:00 +19°C° 0 mm 1 mps 751 mmHg 92%

    Tomorrow, 20 August, Tuesday

    Time Temperature Precipitation Wind Pressure Humidity
    00:00 +19°C° 0 mm 1 mps 751 mmHg 92%
    01:00 +19°C° 0 mm 1 mps 751 mmHg 93%
    02:00 +18°C° 0 mm 1 mps 751 mmHg 93%
    03:00 +18°C° 0 mm 1 mps 752 mmHg 93%
    04:00 +18°C° 0 mm 1 mps 752 mmHg 93%
    05:00 +19°C° 0 mm 1 mps 752 mmHg 89%
    06:00 +20°C° 0 mm 1 mps 752 mmHg 84%
    07:00 +20°C° 0 mm 1 mps 753 mmHg 80%
    08:00 +22°C° 0 mm 1 mps 753 mmHg 71%
    09:00 +23°C° 0 mm 1 mps 753 mmHg 61%
    10:00 +25°C° 0 mm 1 mps 753 mmHg 51%
    11:00 +26°C° 0 mm 1 mps 753 mmHg 48%
    12:00 +26°C° 0 mm 1 mps 752 mmHg 45%
    13:00 +27°C° 0 mm 1 mps 752 mmHg 42%
    14:00 +26°C° 0 mm 2 mps 752 mmHg 46%
    15:00 +25°C° 0 mm 2 mps 752 mmHg 49%
    16:00 +24°C° 0 mm 2 mps 751 mmHg 53%
    17:00 +22°C° 0 mm 3 mps 751 mmHg 53%
    18:00 +22°C° 0 mm 3 mps 751 mmHg 53%
    19:00 +22°C° 0 mm 3 mps 751 mmHg 54%
    20:00 +22°C° 0 mm 3 mps 751 mmHg 55%
    21:00 +21°C° 0 mm 3 mps 751 mmHg 56%
    22:00 +21°C° 0 mm 3 mps 751 mmHg 58%
    23:00 +21°C° 0.4 mm 4 mps 751 mmHg 67%

    Day after tomorrow, 21 August, Wednesday

    Time Temperature Precipitation Wind Pressure Humidity
    00:00 +20°C° 0.4 mm 4 mps 751 mmHg 76%
    01:00 +19°C° 0.4 mm 4 mps 751 mmHg 85%
    02:00 +19°C° 0.4 mm 4 mps 751 mmHg 87%
    03:00 +19°C° 0.4 mm 4 mps 751 mmHg 90%
    04:00 +18°C° 0.4 mm 4 mps 751 mmHg 92%
    05:00 +18°C° 0.1 mm 4 mps 751 mmHg 92%
    06:00 +16°C° 0.1 mm 5 mps 752 mmHg 91%
    07:00 +16°C° 0.1 mm 5 mps 752 mmHg 91%
    08:00 +16°C° 0 mm 6 mps 752 mmHg 88%
    09:00 +16°C° 0 mm 6 mps 753 mmHg 86%
    10:00 +16°C° 0 mm 6 mps 753 mmHg 83%
    11:00 +16°C° 0 mm 6 mps 754 mmHg 82%
    12:00 +17°C° 0 mm 6 mps 754 mmHg 81%
    13:00 +17°C° 0 mm 6 mps 754 mmHg 79%
    14:00 +17°C° 0 mm 5 mps 754 mmHg 78%
    15:00 +17°C° 0 mm 5 mps 754 mmHg 77%
    16:00 +18°C° 0 mm 4 mps 754 mmHg 75%
    17:00 +17°C° 0 mm 3 mps 754 mmHg 79%
    18:00 +17°C° 0 mm 2 mps 754 mmHg 82%
    19:00 +16°C° 0 mm 2 mps 755 mmHg 85%
    20:00 +16°C° 0 mm 1 mps 755 mmHg 87%
    21:00 +15°C° 0 mm 1 mps 755 mmHg 89%
    22:00 +15°C° 0 mm 1 mps 755 mmHg 91%
    23:00 +14°C° 0 mm 1 mps 755 mmHg 92%

    22 August, Thursday

    Time Temperature Precipitation Wind Pressure Humidity
    00:00 +14°C° 0 mm 2 mps 755 mmHg 92%
    01:00 +14°C° 0 mm 2 mps 755 mmHg 92%
    02:00 +13°C° 0 mm 2 mps 755 mmHg 92%
    03:00 +13°C° 0 mm 2 mps 755 mmHg 93%
    04:00 +13°C° 0 mm 2 mps 755 mmHg 93%
    05:00 +14°C° 0 mm 2 mps 755 mmHg 89%
    06:00 +15°C° 0 mm 2 mps 755 mmHg 84%
    07:00 +14°C° 0 mm 3 mps 756 mmHg 79%
    08:00 +17°C° 0 mm 3 mps 756 mmHg 72%
    09:00 +19°C° 0 mm 3 mps 756 mmHg 66%
    10:00 +20°C° 0 mm 3 mps 756 mmHg 59%
    11:00 +21°C° 0 mm 3 mps 755 mmHg 56%
    12:00 +22°C° 0 mm 3 mps 755 mmHg 52%
    13:00 +24°C° 0 mm 3 mps 755 mmHg 49%
    14:00 +24°C° 0 mm 3 mps 755 mmHg 49%
    15:00 +24°C° 0 mm 3 mps 754 mmHg 49%
    16:00 +24°C° 0 mm 3 mps 754 mmHg 49%
    17:00 +22°C° 0 mm 3 mps 754 mmHg 54%
    18:00 +20°C° 0 mm 3 mps 754 mmHg 59%
    19:00 +19°C° 0 mm 2 mps 755 mmHg 63%
    20:00 +18°C° 0 mm 2 mps 755 mmHg 65%
    21:00 +18°C° 0 mm 2 mps 755 mmHg 67%
    22:00 +17°C° 0 mm 2 mps 755 mmHg 69%
    23:00 +17°C° 0 mm 2 mps 755 mmHg 71%

    23 August, Friday

    Time Temperature Precipitation Wind Pressure Humidity
    00:00 +16°C° 0 mm 2 mps 755 mmHg 74%
    01:00 +16°C° 0 mm 2 mps 755 mmHg 76%
    02:00 +15°C° 0 mm 2 mps 755 mmHg 78%
    03:00 +15°C° 0 mm 2 mps 755 mmHg 80%
    04:00 +14°C° 0 mm 2 mps 755 mmHg 82%
    05:00 +16°C° 0 mm 2 mps 755 mmHg 79%
    06:00 +17°C° 0 mm 2 mps 755 mmHg 76%
    07:00 +18°C° 0 mm 3 mps 756 mmHg 72%
    08:00 +19°C° 0 mm 3 mps 756 mmHg 67%
    09:00 +21°C° 0 mm 3 mps 756 mmHg 61%
    10:00 +24°C° 0 mm 3 mps 756 mmHg 56%
    11:00 +24°C° 0 mm 3 mps 756 mmHg 54%
    12:00 +24°C° 0 mm 3 mps 756 mmHg 53%
    13:00 +25°C° 0 mm 3 mps 755 mmHg 51%
    14:00 +25°C° 0 mm 3 mps 755 mmHg 52%
    15:00 +25°C° 0 mm 3 mps 755 mmHg 52%
    16:00 +24°C° 0 mm 3 mps 755 mmHg 53%
    17:00 +22°C° 0 mm 3 mps 755 mmHg 56%
    18:00 +21°C° 0 mm 2 mps 755 mmHg 60%
    19:00 +20°C° 0 mm 2 mps 755 mmHg 64%
    20:00 +19°C° 0 mm 2 mps 755 mmHg 66%
    21:00 +19°C° 0 mm 3 mps 755 mmHg 68%
    22:00 +18°C° 0 mm 3 mps 755 mmHg 69%
    23:00 +18°C° 0 mm 3 mps 755 mmHg 68%

    24 August, Saturday

    Time Temperature Precipitation Wind Pressure Humidity
    00:00 +18°C° 0 mm 3 mps 755 mmHg 67%
    01:00 +18°C° 0 mm 3 mps 755 mmHg 66%
    02:00 +17°C° 0 mm 3 mps 755 mmHg 67%
    03:00 +17°C° 0 mm 4 mps 754 mmHg 68%
    04:00 +17°C° 0 mm 4 mps 754 mmHg 69%
    05:00 +17°C° 0 mm 4 mps 754 mmHg 70%
    06:00 +18°C° 0 mm 4 mps 754 mmHg 71%
    07:00 +19°C° 0 mm 5 mps 754 mmHg 72%
    08:00 +21°C° 0 mm 5 mps 754 mmHg 67%
    09:00 +22°C° 0 mm 5 mps 753 mmHg 61%
    10:00 +25°C° 0 mm 5 mps 753 mmHg 55%
    11:00 +25°C° 0 mm 5 mps 753 mmHg 56%
    12:00 +25°C° 0 mm 5 mps 752 mmHg 57%
    13:00 +26°C° 0 mm 5 mps 752 mmHg 58%
    14:00 +26°C° 0 mm 5 mps 752 mmHg 58%
    15:00 +26°C° 0 mm 5 mps 751 mmHg 58%
    16:00 +26°C° 0 mm 5 mps 751 mmHg 59%
    17:00 +25°C° 0 mm 5 mps 751 mmHg 64%
    18:00 +23°C° 0 mm 4 mps 750 mmHg 69%
    19:00 +22°C° 0 mm 4 mps 750 mmHg 74%
    20:00 +22°C° 0 mm 4 mps 750 mmHg 76%
    21:00 +21°C° 0 mm 4 mps 750 mmHg 78%
    22:00 +21°C° 0 mm 4 mps 750 mmHg 80%
    23:00 +21°C° 0 mm 4 mps 750 mmHg 81%
    Show more